GW0280 Weather Reports


Display with metric or nautical units.
time (UTC)temp
F
wind
direction
speed
MPH
gust
MPH
rain 1hr
in
rain 24hr
in
rain mn
in
humidity
%
barometer
mb
20260504184541 72 217 6.0 15.0 0.00 0.00 0.00 38 1012.2
20260504183035 72 179 5.0 12.0 0.00 0.00 0.00 39 1012.4
20260504181546 72 221 6.0 13.0 0.00 0.00 0.00 38 1012.7
20260504180114 71 286 5.0 15.0 0.00 0.00 0.00 36 1012.7
20260504174542 71 206 3.0 13.0 0.00 0.00 0.00 36 1012.9
20260504173044 71 236 3.0 11.0 0.00 0.00 0.00 36 1013.1
20260504171539 71 244 4.0 13.0 0.00 0.00 0.00 40 1013.0
20260504081545 48 0 0.0 3.0 0.00 0.00 0.00 85 1015.8
20260504050105 38 0 0.0 0.0 0.00 0.00 0.00 85 1015.8
20260504044539 39 0 0.0 0.0 0.00 0.00 0.00 84 1015.9
20260504043045 39 0 0.0 0.0 0.00 0.00 0.00 82 1015.8
20260504041543 40 0 0.0 0.0 0.00 0.00 0.00 81 1015.7
20260504040044 40 0 0.0 0.0 0.00 0.00 0.00 81 1015.5
20260504034549 40 0 0.0 0.0 0.00 0.00 0.00 79 1015.5
20260504033044 41 0 0.0 1.0 0.00 0.00 0.00 79 1015.4
20260504031556 40 0 0.0 1.0 0.00 0.00 0.00 79 1015.3
20260504030045 41 0 0.0 0.0 0.00 0.00 0.00 79 1015.3
20260504024544 41 0 0.0 0.0 0.00 0.00 0.00 79 1015.2
20260504023043 41 0 0.0 0.0 0.00 0.00 0.00 78 1015.3
20260504021541 41 0 0.0 1.0 0.00 0.00 0.00 77 1015.2
20260504020041 42 0 0.0 0.0 0.00 0.00 0.00 76 1015.2
20260504014546 43 0 0.0 0.0 0.00 0.00 0.00 74 1015.2
20260504013046 44 0 0.0 0.0 0.00 0.00 0.00 74 1015.1
20260504011546 45 0 0.0 0.0 0.00 0.00 0.00 70 1015.1
20260504010046 46 0 0.0 0.0 0.00 0.00 0.00 67 1015.0
20260504004542 48 0 0.0 0.0 0.00 0.00 0.00 64 1014.7
20260504003045 50 0 0.0 0.0 0.00 0.00 0.00 60 1014.5
20260504001552 52 0 0.0 0.0 0.00 0.00 0.00 55 1014.5
20260504000045 55 0 0.0 0.0 0.00 0.00 0.00 50 1014.2
20260503234544 57 0 0.0 2.0 0.00 0.00 0.00 42 1014.1
20260503233042 58 0 0.0 5.0 0.00 0.00 0.00 40 1014.0
20260503231547 59 207 0.0 4.0 0.00 0.00 0.00 38 1014.1
20260503230039 60 182 0.0 11.0 0.00 0.00 0.00 36 1014.1
20260503224539 60 229 2.0 8.0 0.00 0.00 0.00 36 1014.0
20260503223045 60 325 2.0 8.0 0.00 0.00 0.00 36 1014.0
20260503221540 60 178 3.0 11.0 0.00 0.00 0.00 36 1014.2
20260503220043 60 0 3.0 12.0 0.00 0.00 0.00 35 1014.1
20260503214548 60 360 4.0 14.0 0.00 0.00 0.00 37 1014.2
20260503213101 60 283 3.0 8.0 0.00 0.00 0.00 37 1014.1
20260503211612 60 327 3.0 11.0 0.00 0.00 0.00 37 1014.0
20260503210043 60 219 3.0 16.0 0.00 0.00 0.00 39 1014.1
20260503204559 60 331 3.0 17.0 0.00 0.00 0.00 38 1014.1
20260503203042 59 139 6.0 22.0 0.00 0.00 0.00 39 1014.3
20260503201543 59 50 2.0 13.0 0.00 0.00 0.00 38 1014.3
20260503200039 59 199 6.0 15.0 0.00 0.00 0.00 39 1014.4
20260503194543 58 220 6.0 17.0 0.00 0.00 0.00 38 1015.0
20260503193044 58 346 4.0 15.0 0.00 0.00 0.00 39 1014.9
20260503191556 58 360 4.0 12.0 0.00 0.00 0.00 41 1014.9
20260503190044 58 338 4.0 15.0 0.00 0.00 0.00 40 1014.9